TimeCST,TemperatureF,Dew PointF,Humidity,Sea Level PressureIn,VisibilityMPH,Wind Direction,Wind SpeedMPH,Gust SpeedMPH,PrecipitationIn,Events,Conditions,WindDirDegrees,DateUTC
12:14 AM,55.4,53.6,94,29.89,8.0,NNE,4.6,-,0.00,Rain,Light Rain,20,2012-11-06 06:14:00
12:56 AM,55.0,54.0,96,29.87,10.0,North,3.5,-,0.00,,Overcast,10,2012-11-06 06:56:00
1:56 AM,53.1,52.0,96,29.86,10.0,North,3.5,-,N/A,,Scattered Clouds,360,2012-11-06 07:56:00
2:56 AM,52.0,51.1,97,29.87,9.0,NNW,4.6,-,N/A,,Clear,340,2012-11-06 08:56:00
3:53 AM,51.8,51.8,100,29.93,7.0,NNW,4.6,-,N/A,,Scattered Clouds,340,2012-11-06 09:53:00
3:56 AM,51.1,51.1,100,29.89,7.0,NNW,6.9,-,N/A,,Mostly Cloudy,340,2012-11-06 09:56:00
4:15 AM,51.8,51.8,100,29.93,1.8,NNW,8.1,-,N/A,,Overcast,340,2012-11-06 10:15:00
4:25 AM,51.8,51.8,100,29.93,0.5,North,6.9,-,N/A,Fog,Fog,350,2012-11-06 10:25:00
4:49 AM,51.8,51.8,100,29.94,1.0,North,5.8,-,N/A,,Mist,350,2012-11-06 10:49:00
4:56 AM,51.1,51.1,100,29.90,1.2,Variable,5.8,-,N/A,,Overcast,0,2012-11-06 10:56:00
5:19 AM,51.8,51.8,100,29.94,3.0,NNW,8.1,-,N/A,,Overcast,340,2012-11-06 11:19:00
5:56 AM,50.0,50.0,100,29.92,3.0,North,8.1,-,N/A,,Overcast,350,2012-11-06 11:56:00
6:26 AM,51.8,50.0,94,29.98,4.0,NNW,11.5,-,N/A,,Overcast,330,2012-11-06 12:26:00
6:56 AM,51.1,50.0,96,29.95,6.0,North,11.5,-,N/A,,Overcast,360,2012-11-06 12:56:00
7:25 AM,51.8,48.2,88,29.99,9.0,North,8.1,16.1,N/A,,Overcast,360,2012-11-06 13:25:00
7:56 AM,52.0,48.0,86,29.96,10.0,North,8.1,17.3,N/A,,Overcast,360,2012-11-06 13:56:00
8:56 AM,52.0,48.0,86,29.97,10.0,NNW,11.5,-,N/A,,Mostly Cloudy,330,2012-11-06 14:56:00
9:56 AM,57.9,48.9,72,29.95,10.0,NNW,8.1,-,N/A,,Scattered Clouds,340,2012-11-06 15:56:00
10:56 AM,61.0,48.9,64,29.95,10.0,NNW,9.2,-,N/A,,Scattered Clouds,330,2012-11-06 16:56:00
11:56 AM,63.0,48.0,58,29.93,10.0,North,12.7,23.0,N/A,,Scattered Clouds,350,2012-11-06 17:56:00
12:56 PM,64.0,48.0,56,29.89,10.0,North,10.4,-,N/A,,Scattered Clouds,350,2012-11-06 18:56:00
1:56 PM,64.9,46.9,52,29.90,10.0,North,11.5,20.7,N/A,,Scattered Clouds,350,2012-11-06 19:56:00
2:56 PM,62.1,46.9,58,29.92,10.0,NNW,16.1,-,N/A,,Scattered Clouds,340,2012-11-06 20:56:00
3:56 PM,59.0,46.0,62,29.92,10.0,NNW,11.5,-,N/A,,Scattered Clouds,330,2012-11-06 21:56:00
4:56 PM,55.9,46.9,72,29.93,10.0,North,9.2,-,N/A,,Scattered Clouds,350,2012-11-06 22:56:00
5:56 PM,54.0,46.0,75,29.94,10.0,NW,6.9,-,N/A,,Partly Cloudy,320,2012-11-06 23:56:00
6:56 PM,52.0,46.0,80,29.98,10.0,NW,8.1,-,N/A,,Partly Cloudy,320,2012-11-07 00:56:00
7:56 PM,48.9,45.0,86,29.98,10.0,Calm,Calm,-,N/A,,Scattered Clouds,0,2012-11-07 01:56:00
8:56 PM,46.0,44.1,93,29.99,9.0,WNW,4.6,-,N/A,,Scattered Clouds,290,2012-11-07 02:56:00
9:56 PM,46.0,44.1,93,29.99,10.0,West,3.5,-,N/A,,Partly Cloudy,280,2012-11-07 03:56:00
10:56 PM,45.0,44.1,97,29.98,8.0,WNW,4.6,-,N/A,,Partly Cloudy,300,2012-11-07 04:56:00
11:56 PM,45.0,44.1,97,29.98,8.0,WNW,5.8,-,N/A,,Clear,290,2012-11-07 05:56:00